Home   Weather   City of Louisville   Past weeks
Flag for USA

Past Weather in City of Louisville, Georgia, USA — Yesterday and Last 2 Weeks

Now
65 °F

Passing clouds.


Feels Like: 65 °F
Forecast: 73 / 59 °F
Wind: 5 mph from North

Location: Daniel Field

Current Time: Oct 15, 2019 at 8:10:43 am

Latest Report: Oct 15, 2019 at 6:53 am


Visibility: 10 mi

Pressure: 30.09 "Hg

Humidity: 73%

Dew Point: 56 °F

Location of City of LouisvilleLocation

Past Weather in City of Louisville — Graph

°F

City of Louisville Temperature Yesterday

Maximum temperature yesterday: 82 °F (at 2:53 pm)
Minimum temperature yesterday: 65 °F (at 7:53 am)
Average temperature yesterday: 72 °F

High & Low Weather Summary for the Past Weeks

 TemperatureHumidityPressure
High100 °F (Oct 4, 4:53 pm)91% (Oct 1, 7:03 am)30.24 "Hg (Oct 1, 7:03 am)
Low60 °F (Oct 11, 6:53 am)25% (Oct 4, 4:53 pm)29.92 "Hg (Oct 4, 4:53 pm)
Average77 °F62%30.07 "Hg
* Reported Sep 30 6:53 am — Oct 15 6:53 am, City of Louisville. Weather by CustomWeather, © 2019

Note: Actual official high and low records may vary slightly from our data, if they occured in-between our weather recording intervals... More about our weather records

Advertising

City of Louisville Weather History for the Previous 24 Hours

Scroll right to see more
 ConditionsComfort  
Time TempWeatherWind HumidityBarometerVisibility
6:53 am
Tue, Oct 15
65 °FPassing clouds.5 mph73%30.09 "Hg10 mi
5:53 am66 °FMostly cloudy.3 mph68%30.09 "Hg10 mi
4:53 am68 °FOvercast.No wind61%30.08 "Hg10 mi
3:53 am64 °FPassing clouds.No wind70%30.08 "Hg10 mi
2:53 am67 °FPassing clouds.3 mph61%30.07 "Hg10 mi
1:53 am68 °FClear.3 mph57%30.07 "Hg10 mi
12:53 am68 °FClear.No wind55%30.09 "Hg10 mi
11:53 pm
Mon, Oct 14
68 °FClear.6 mph59%30.09 "Hg10 mi
10:53 pm68 °FClear.No wind57%30.09 "Hg10 mi
9:53 pm68 °FClear.No wind57%30.09 "Hg10 mi
8:53 pm72 °FClear.7 mph44%30.07 "Hg10 mi
7:53 pm75 °FClear.3 mph37%30.05 "Hg10 mi
6:53 pm77 °FSunny.5 mph37%30.03 "Hg10 mi
5:53 pm80 °FSunny.5 mph30%30.03 "Hg10 mi
4:53 pm82 °FSunny.5 mph29%30.03 "Hg10 mi
3:53 pm82 °FSunny.5 mph29%30.03 "Hg10 mi
2:53 pm82 °FSunny.5 mph27%30.04 "Hg10 mi
1:53 pm81 °FSunny.8 mph30%30.06 "Hg10 mi
12:53 pm79 °FSunny.9 mph36%30.08 "Hg10 mi
11:53 am76 °FSunny.8 mph42%30.09 "Hg10 mi
10:53 am72 °FSunny.5 mph57%30.09 "Hg10 mi
9:53 am69 °FSunny.7 mph79%30.09 "Hg10 mi
8:53 am67 °FSunny.No wind87%30.08 "Hg10 mi
Weather by CustomWeather, © 2019

See weather overview